When you browse on this site, cookies collect data to enhance your experience and personalize the content and advertising you see.
Visit our Privacy Policy to learn more. By continuing to use the site, you agree to this use of cookies and data.
  • In Portugal
  • List of Countries
  • For 7 days
  • Water Temperature
  • Satellite Maps
  • Weather Map
  • Weather Widgets
  • user-avatar
    Login

    Hourly Weather Gieldon

    Today, 18 February, Monday

    Time Temperature Precipitation Wind Pressure Humidity
    00:00 +4°C° 0 mm 1 mps 755 mmHg 96%
    01:00 +2°C° 0 mm 0 mps 755 mmHg 96%
    02:00 +3°C° 0 mm 1 mps 755 mmHg 96%
    03:00 +3°C° 0 mm 1 mps 754 mmHg 96%
    04:00 +3°C° 0 mm 1 mps 754 mmHg 97%
    05:00 +3°C° 0 mm 1 mps 754 mmHg 97%
    06:00 +3°C° 0 mm 1 mps 754 mmHg 97%
    07:00 +2°C° 0 mm 2 mps 754 mmHg 97%
    08:00 +3°C° 0 mm 2 mps 754 mmHg 95%
    09:00 +3°C° 0 mm 3 mps 754 mmHg 92%
    10:00 +4°C° 0 mm 3 mps 754 mmHg 90%
    11:00 +7°C° 0 mm 3 mps 754 mmHg 84%
    12:00 +8°C° 0 mm 3 mps 753 mmHg 79%
    13:00 +8°C° 0 mm 4 mps 753 mmHg 73%
    14:00 +9°C° 0 mm 3 mps 753 mmHg 73%
    15:00 +8°C° 0 mm 3 mps 752 mmHg 72%
    16:00 +8°C° 0 mm 3 mps 752 mmHg 71%
    17:00 +7°C° 0 mm 3 mps 752 mmHg 75%
    18:00 +5°C° 0 mm 3 mps 751 mmHg 78%
    19:00 +5°C° 0 mm 2 mps 751 mmHg 82%
    20:00 +4°C° 0 mm 2 mps 751 mmHg 83%
    21:00 +4°C° 0 mm 2 mps 750 mmHg 83%
    22:00 +4°C° 0 mm 2 mps 750 mmHg 84%
    23:00 +3°C° 0 mm 2 mps 750 mmHg 84%

    Tomorrow, 19 February, Tuesday

    Time Temperature Precipitation Wind Pressure Humidity
    00:00 +3°C° 0 mm 2 mps 749 mmHg 85%
    01:00 +3°C° 0 mm 2 mps 749 mmHg 85%
    02:00 +3°C° 0 mm 2 mps 749 mmHg 85%
    03:00 +2°C° 0 mm 2 mps 748 mmHg 85%
    04:00 +1°C° 0 mm 3 mps 748 mmHg 85%
    05:00 +1°C° 0 mm 3 mps 747 mmHg 85%
    06:00 +1°C° 0 mm 3 mps 747 mmHg 86%
    07:00 +1°C° 0 mm 3 mps 746 mmHg 86%
    08:00 +1°C° 0 mm 4 mps 746 mmHg 83%
    09:00 +3°C° 0 mm 4 mps 746 mmHg 79%
    10:00 +3°C° 0 mm 5 mps 746 mmHg 76%
    11:00 +5°C° 0 mm 5 mps 746 mmHg 74%
    12:00 +7°C° 0 mm 5 mps 746 mmHg 72%
    13:00 +8°C° 0 mm 5 mps 746 mmHg 69%
    14:00 +7°C° 0.2 mm 5 mps 746 mmHg 74%
    15:00 +6°C° 0.2 mm 5 mps 746 mmHg 79%
    16:00 +6°C° 0.2 mm 5 mps 746 mmHg 84%
    17:00 +5°C° 0.1 mm 4 mps 746 mmHg 84%
    18:00 +5°C° 0.1 mm 4 mps 746 mmHg 83%
    19:00 +5°C° 0.1 mm 4 mps 746 mmHg 82%
    20:00 +5°C° 0 mm 4 mps 746 mmHg 83%
    21:00 +4°C° 0 mm 4 mps 746 mmHg 83%
    22:00 +4°C° 0 mm 4 mps 746 mmHg 83%
    23:00 +4°C° 0 mm 4 mps 746 mmHg 83%

    Day after tomorrow, 20 February, Wednesday

    Time Temperature Precipitation Wind Pressure Humidity
    00:00 +4°C° 0 mm 4 mps 747 mmHg 83%
    01:00 +3°C° 0 mm 4 mps 747 mmHg 82%
    02:00 +2°C° 0 mm 5 mps 747 mmHg 83%
    03:00 +2°C° 0 mm 5 mps 747 mmHg 84%
    04:00 +2°C° 0 mm 5 mps 747 mmHg 84%
    05:00 +2°C° 0.1 mm 5 mps 747 mmHg 84%
    06:00 +2°C° 0.1 mm 5 mps 747 mmHg 83%
    07:00 +2°C° 0.1 mm 5 mps 748 mmHg 82%
    08:00 +2°C° 0.1 mm 5 mps 748 mmHg 80%
    09:00 +2°C° 0.1 mm 5 mps 748 mmHg 79%
    10:00 +3°C° 0.1 mm 5 mps 749 mmHg 77%
    11:00 +3°C° 0.1 mm 5 mps 749 mmHg 78%
    12:00 +3°C° 0.1 mm 5 mps 749 mmHg 78%
    13:00 +5°C° 0.1 mm 5 mps 750 mmHg 79%
    14:00 +5°C° 0.1 mm 5 mps 750 mmHg 79%
    15:00 +5°C° 0.1 mm 5 mps 750 mmHg 79%
    16:00 +5°C° 0.1 mm 4 mps 750 mmHg 78%
    17:00 +4°C° 0 mm 4 mps 751 mmHg 81%
    18:00 +4°C° 0 mm 4 mps 751 mmHg 84%
    19:00 +4°C° 0 mm 3 mps 751 mmHg 86%
    20:00 +4°C° 0.1 mm 3 mps 751 mmHg 88%
    21:00 +4°C° 0.1 mm 3 mps 751 mmHg 89%
    22:00 +4°C° 0.1 mm 3 mps 751 mmHg 90%
    23:00 +4°C° 0.1 mm 3 mps 751 mmHg 91%

    21 February, Thursday

    Time Temperature Precipitation Wind Pressure Humidity
    00:00 +4°C° 0.1 mm 3 mps 751 mmHg 91%
    01:00 +4°C° 0.1 mm 4 mps 751 mmHg 91%
    02:00 +4°C° 0.2 mm 4 mps 751 mmHg 91%
    03:00 +4°C° 0.2 mm 4 mps 750 mmHg 90%
    04:00 +4°C° 0.2 mm 4 mps 750 mmHg 90%
    05:00 +4°C° 0.5 mm 4 mps 750 mmHg 90%
    06:00 +4°C° 0.5 mm 4 mps 750 mmHg 91%
    07:00 +4°C° 0.5 mm 4 mps 750 mmHg 91%
    08:00 +5°C° 0.3 mm 4 mps 750 mmHg 90%
    09:00 +5°C° 0.3 mm 4 mps 750 mmHg 90%
    10:00 +5°C° 0.3 mm 4 mps 750 mmHg 90%
    11:00 +6°C° 0.1 mm 4 mps 751 mmHg 89%
    12:00 +6°C° 0.1 mm 4 mps 751 mmHg 88%
    13:00 +6°C° 0.1 mm 4 mps 751 mmHg 87%
    14:00 +6°C° 0 mm 4 mps 752 mmHg 87%
    15:00 +6°C° 0 mm 4 mps 752 mmHg 87%
    16:00 +6°C° 0 mm 4 mps 753 mmHg 87%
    17:00 +5°C° 0.1 mm 3 mps 754 mmHg 88%
    18:00 +5°C° 0.1 mm 3 mps 754 mmHg 90%
    19:00 +5°C° 0.1 mm 2 mps 755 mmHg 91%
    20:00 +4°C° 0 mm 2 mps 756 mmHg 89%
    21:00 +2°C° 0 mm 3 mps 757 mmHg 87%
    22:00 +1°C° 0 mm 3 mps 757 mmHg 84%
    23:00 +2°C° 0 mm 2 mps 758 mmHg 84%

    22 February, Friday

    Time Temperature Precipitation Wind Pressure Humidity
    00:00 +1°C° 0 mm 2 mps 759 mmHg 84%
    01:00 +2°C° 0 mm 1 mps 760 mmHg 83%
    02:00 -1°C° 0 mm 2 mps 760 mmHg 81%
    03:00 -1°C° 0 mm 2 mps 761 mmHg 78%
    04:00 -1°C° 0 mm 2 mps 761 mmHg 76%
    05:00 -1°C° 0 mm 2 mps 762 mmHg 73%
    06:00 -2°C° 0 mm 2 mps 763 mmHg 70%
    07:00 -2°C° 0 mm 2 mps 763 mmHg 67%
    08:00 -1°C° 0 mm 2 mps 764 mmHg 61%
    09:00 +1°C° 0 mm 2 mps 765 mmHg 55%
    10:00 +2°C° 0 mm 2 mps 766 mmHg 49%
    11:00 +2°C° 0 mm 2 mps 766 mmHg 46%
    12:00 +4°C° 0 mm 1 mps 766 mmHg 43%
    13:00 +5°C° 0 mm 1 mps 767 mmHg 39%
    14:00 +5°C° 0 mm 1 mps 767 mmHg 40%
    15:00 +5°C° 0 mm 1 mps 767 mmHg 41%
    16:00 +5°C° 0 mm 1 mps 767 mmHg 42%
    17:00 +4°C° 0 mm 1 mps 767 mmHg 46%
    18:00 +3°C° 0 mm 1 mps 768 mmHg 49%
    19:00 +2°C° 0 mm 1 mps 768 mmHg 53%
    20:00 +1°C° 0 mm 2 mps 768 mmHg 54%
    21:00 +1°C° 0 mm 2 mps 768 mmHg 55%
    22:00 -1°C° 0 mm 2 mps 768 mmHg 57%
    23:00 -1°C° 0 mm 2 mps 768 mmHg 58%

    23 February, Saturday

    Time Temperature Precipitation Wind Pressure Humidity
    00:00 -1°C° 0 mm 2 mps 768 mmHg 59%
    01:00 -1°C° 0 mm 2 mps 768 mmHg 60%
    02:00 -1°C° 0 mm 3 mps 768 mmHg 61%
    03:00 -1°C° 0 mm 3 mps 767 mmHg 63%
    04:00 -1°C° 0 mm 3 mps 767 mmHg 65%
    05:00 0°C° 0 mm 3 mps 767 mmHg 72%
    06:00 0°C° 0 mm 3 mps 767 mmHg 78%
    07:00 0°C° 0 mm 3 mps 766 mmHg 84%
    08:00 +1°C° 0 mm 3 mps 766 mmHg 85%
    09:00 +3°C° 0 mm 4 mps 766 mmHg 85%
    10:00 +4°C° 0 mm 4 mps 766 mmHg 85%
    11:00 +5°C° 0 mm 4 mps 766 mmHg 84%
    12:00 +6°C° 0 mm 4 mps 765 mmHg 84%
    13:00 +6°C° 0 mm 4 mps 765 mmHg 83%
    14:00 +7°C° 0 mm 4 mps 765 mmHg 83%
    15:00 +7°C° 0 mm 4 mps 764 mmHg 83%
    16:00 +7°C° 0 mm 4 mps 764 mmHg 84%
    17:00 +6°C° 0 mm 4 mps 764 mmHg 86%
    18:00 +6°C° 0 mm 4 mps 764 mmHg 88%
    19:00 +5°C° 0 mm 4 mps 764 mmHg 91%
    20:00 +5°C° 0 mm 4 mps 763 mmHg 91%
    21:00 +5°C° 0 mm 4 mps 763 mmHg 91%
    22:00 +5°C° 0 mm 4 mps 763 mmHg 91%
    23:00 +4°C° 0 mm 4 mps 763 mmHg 91%
    Show more